x

Cape Elizabeth- 45nm Nw Of Aberdeen, Wa (46041) Wave Buoy

2:50 - Sat 1st Aug 2015 All times are PDT. -7 hours from GMT.

  • Sig Wave height 4.6ft
  • Swell Direction
  • Peak Period 7s
  • Average Period 6s
  • Wind
    16mph, 20mph gusts
  • Sea Temp 60°f
  • Luft Temp 60°f
  • Sea Pressure 1016.1mb
  • Cape Elizabeth- 45nm Nw Of Aberdeen, Wa
  • Cape Elizabeth- 45nm Nw Of Aberdeen, Wa

More Historic Weather Station data

Upgrade to MSW Pro to gain access to the past 30 days of data for over 8000 Wavebouys and Weather Stations around the globe.

Join Pro

Comparision Forecast

View Surf forecast
   
Sa 08/01 2:50 4.5ft 7s 6s 16 20 mph 1016.1mb 60f 60f
1:50 4.5ft 7s 5s 13 16 mph 1016.5mb 59f 60f
12:50 5ft 8s 6s 11 13 mph 1016.7mb 60f 60f
11:50 5ft 8s 6s 7 9 mph 1016.9mb 60f 60f
10:50 5.5ft 7s 6s 2
mph
1017.1mb 60f 59f
9:50 5.5ft 7s 6s  -  2 mph 1017.1mb 59f 59f
8:50 5ft 7s 6s 7 9 mph 1017.1mb 59f 59f
7:50 5ft 7s 6s 9 11 mph 1016.9mb 58f 59f
6:50 5ft 7s 6s 9
mph
1017.1mb 58f 59f
5:50 4.5ft 7s 6s 11 13 mph 1016.2mb 58f 59f
4:50 4.5ft 7s 6s 13 16 mph 1016.3mb 58f 60f
3:50 4.5ft 7s 5s 16 18 mph 1016.1mb 58f 60f
2:50 4.5ft 15s 5s 13 18 mph 1016.3mb 58f 60f
1:50 4.5ft 7s 5s 18 20 mph 1016.5mb 58f 60f
12:50 4.5ft 15s 5s 18 20 mph 1016.7mb 58f 60f
Fr 07/31 11:50 4.5ft 7s 5s 16 18 mph 1016.8mb 59f 60f
10:50 4.5ft 15s 5s 16 18 mph 1017mb 58f 60f
9:50 4.5ft 15s 5s 16 18 mph 1017.1mb 59f 60f
8:50 4.5ft 8s 5s 16 20 mph 1016.8mb 59f 61f
7:50 4.5ft 15s 6s 16 20 mph 1017mb 59f 61f
6:50 4.5ft 7s 6s 13 16 mph 1017.2mb 60f 61f
5:50 4.5ft 8s 6s 13
mph
1018mb 60f 61f
4:50 4.5ft 8s 6s 13 16 mph 1018.4mb 60f 61f
3:50 5ft 8s 6s 13 16 mph 1018.7mb 59f 61f
2:50 4.5ft 8s 6s 11 13 mph 1019.3mb 60f 61f
1:50 4ft 15s 6s 11 13 mph 1019.6mb 60f 61f
12:50 4.5ft 8s 6s 11 13 mph 1019.5mb 60f 61f
11:50 4.5ft 7s 6s 11 13 mph 1019.7mb 59f 61f
10:50 4.5ft 14s 6s 11 13 mph 1019.8mb 59f 60f
9:50 4.5ft 15s 6s 11
mph
1019.9mb 59f 60f
8:50 4.5ft 15s 6s 9 11 mph 1020mb 58f 60f
7:50 4.5ft 15s 6s 11 13 mph 1019.9mb 59f 60f
6:50 4.5ft 15s 6s 13 16 mph 1019.5mb 59f 60f
5:50 4.5ft 6s 5s 16 18 mph 1018.7mb 60f 60f
4:50 4.5ft 7s 6s 16 18 mph 1018.5mb 60f 60f
3:50 4.5ft 15s 6s 16 20 mph 1018.4mb 60f 60f
2:50 4.5ft 6s 6s 13 16 mph 1018.3mb 59f 60f
1:50 4.5ft 15s 6s 16 18 mph 1018.2mb 60f 60f
12:50 4.5ft 6s 5s 13 18 mph 1018.3mb 60f 60f
Do 07/30 11:50 4.5ft 15s 5s 16 18 mph 1018.2mb 60f 60f
10:50 4.5ft 7s 5s 18 20 mph 1018.3mb 60f 60f
9:50 5ft 7s 5s 18 20 mph 1018.1mb 60f 61f
8:50 5ft 7s 5s 18 20 mph 1017.7mb 60f 61f
7:50 5ft 7s 5s 18 20 mph 1017.8mb 60f 62f
6:50 5ft 7s 5s 16 20 mph 1017.9mb 60f 62f
5:50 5ft 8s 6s 16 20 mph 1018.2mb 60f 62f
4:50 5ft 9s 6s 16 18 mph 1018.6mb 60f 61f
3:50 5ft 8s 6s 13 16 mph 1018.8mb 60f 61f
2:50 4.5ft 7s 6s 13 16 mph 1019.1mb 60f 61f
1:50 4.5ft 15s 6s 13 16 mph 1019.3mb 60f 61f
12:50 4.5ft 16s 6s 13 16 mph 1019.6mb 61f 61f
11:50 4.5ft 9s 6s 11 13 mph 1019.5mb 60f 60f
10:50 4.5ft 16s 6s 11 13 mph 1019.3mb 60f 60f
9:50 4.5ft 9s 6s 11
mph
1019.3mb 60f 60f
8:50 4.5ft 16s 6s 9 11 mph 1019.5mb 59f 60f
7:50 4.5ft 9s 6s 11
mph
1019.4mb 59f 60f
6:50 4.5ft 9s 6s 13
mph
1019.1mb 59f 59f
5:50 4.5ft 16s 6s 16 18 mph 1018.8mb 59f 59f
4:50 4.5ft 9s 6s 13 18 mph 1018.6mb 59f 59f
3:50 4.5ft 9s 6s 16 18 mph 1018.5mb 59f 59f
2:50 4.5ft 8s 6s 16 18 mph 1018.7mb 59f 59f
1:50 5ft 16s 6s 16 18 mph 1018.8mb 60f 60f
12:50 5ft 9s 6s 13 16 mph 1018.9mb 60f 60f
Mi 07/29 11:50 5ft 10s 6s 18 20 mph 1019mb 60f 60f
10:50 5ft 10s 6s 18 20 mph 1019.2mb 60f 60f
9:50 6ft 10s 6s 18 22 mph 1019.2mb 60f 60f
8:50 5.5ft 16s 6s 20 25 mph 1019.1mb 61f 61f
7:50 5ft 10s 5s 20 25 mph 1019.4mb 61f 61f
6:50 5.5ft 10s 6s 20 25 mph 1019.6mb 61f 61f
5:50 4.5ft 10s 6s 18 20 mph 1020.3mb 61f 61f
4:50 5ft 10s 6s 16 18 mph 1020.9mb 61f 59f
3:50 5.5ft 10s 7s 18 22 mph 1021.2mb 61f 58f
2:50 5ft 10s 7s 13 18 mph 1021.7mb 61f 58f
1:50 5ft 10s 7s 16 18 mph 1021.8mb 62f 58f
12:50 5.5ft 10s 7s 13 16 mph 1021.9mb 61f 58f
11:50 5ft 10s 7s 11 13 mph 1022.3mb 61f 58f
10:50 6ft 10s 7s 11 13 mph 1022.4mb 61f 58f
9:50 5ft 16s 7s 11 16 mph 1022.4mb 61f 58f
8:50 5.5ft 10s 7s 11 16 mph 1022.5mb 60f 58f
7:50 4.5ft 10s 6s 13 18 mph 1022.5mb 60f 58f
6:50 5ft 10s 6s 13 16 mph 1022.6mb 60f 58f
5:50 5ft 10s 6s 18 20 mph 1022.3mb 60f 58f
4:50 5ft 17s 6s 20 22 mph 1022.3mb 60f 58f
3:50 5ft 10s 6s 18 22 mph 1022.2mb 61f 59f
2:50 5ft 10s 6s 20 22 mph 1022.3mb 61f 60f
1:50 5ft 10s 6s 16 20 mph 1022.5mb 61f 60f
12:50 5ft 9s 6s 18 22 mph 1022.6mb 61f 60f
Di 07/28 11:50 5ft 8s 6s 18 22 mph 1022.8mb 61f 60f
10:50 5ft 10s 6s 18 22 mph 1023.1mb 61f 60f